Location: Capvern
(43.1036°N, 0.3160°E)
Time: 12:03:17
(UTC+00:00)

Cosmos 489 Rocket - Pass Details

Date: 07 June 2022
Orbit: 952 x 983 km, 74.0° (Epoch: 01 July)

Event Time Altitude Azimuth Distance (km) Brightness Sun altitude
Rises 01:02:42 0° 344° (NNW) 3,652 8.4 -22.5°
Reaches altitude 10° 01:05:22 10° 351° (N) 2,706 7.7 -22.3°
Maximum altitude 01:11:20 45° 63° (ENE) 1,300 5.4 -22.0°
Drops below altitude 10° 01:17:19 10° 135° (SE) 2,711 6.6 -21.6°
Enters shadow 01:17:35 - 136° (SE) 2,801 6.6 -21.6°
